contact:dominique.lefevre@mio.osupytheas.fr, maurice.libes@osupytheas.fr, didier.mallarino@osupytheas.fr
Project:EMSO http://www.emso-fr.org/EMSO-France
Depth: 2436.0 m
Title:EMSO Ligure Ouest : Data MII capteur MICROCAT
DateTime_Computer,Latitude,Longitude,Temperature,Conductivity,Pressure,DateTime_Instrument
DateTime_Computer,Latitude,Longitude,degC,S m-1,dbar,DateTime_Instrument
2020-08-16T00:00:19Z,42.805,6.029,13.2971,4.59972,2470.063,2020-8-16T02:01:08Z
2020-08-16T00:03:22Z,42.805,6.029,13.2974,4.59973,2470.063,2020-8-16T02:04:11Z
2020-08-16T00:06:25Z,42.805,6.029,13.2972,4.59972,2470.077,2020-8-16T02:07:14Z
2020-08-16T00:09:28Z,42.805,6.029,13.2970,4.59973,2470.1,2020-8-16T02:10:18Z
2020-08-16T00:12:32Z,42.805,6.029,13.2969,4.59973,2470.063,2020-8-16T02:13:21Z
2020-08-16T00:15:35Z,42.805,6.029,13.2976,4.59973,2470.04,2020-8-16T02:16:24Z
2020-08-16T00:18:38Z,42.805,6.029,13.2969,4.59973,2470.053,2020-8-16T02:19:28Z
2020-08-16T00:21:42Z,42.805,6.029,13.2971,4.59973,2470.077,2020-8-16T02:22:31Z
2020-08-16T00:24:45Z,42.805,6.029,13.2971,4.59974,2470.087,2020-8-16T02:25:34Z
2020-08-16T00:27:48Z,42.805,6.029,13.2974,4.59973,2470.063,2020-8-16T02:28:37Z
2020-08-16T00:30:51Z,42.805,6.029,13.2970,4.59973,2470.063,2020-8-16T02:31:40Z
2020-08-16T00:33:54Z,42.805,6.029,13.2971,4.59973,2470.063,2020-8-16T02:34:44Z
2020-08-16T00:36:58Z,42.805,6.029,13.2967,4.59973,2470.1,2020-8-16T02:37:47Z
2020-08-16T00:40:01Z,42.805,6.029,13.2974,4.59973,2470.087,2020-8-16T02:40:50Z
2020-08-16T00:43:04Z,42.805,6.029,13.2969,4.59973,2470.077,2020-8-16T02:43:53Z
2020-08-16T00:46:07Z,42.805,6.029,13.2974,4.59973,2470.077,2020-8-16T02:46:56Z
2020-08-16T00:49:11Z,42.805,6.029,13.2971,4.59973,2470.077,2020-8-16T02:50:00Z
2020-08-16T00:52:14Z,42.805,6.029,13.2974,4.59973,2470.087,2020-8-16T02:53:03Z
2020-08-16T00:55:17Z,42.805,6.029,13.2971,4.59973,2470.087,2020-8-16T02:56:06Z
2020-08-16T00:58:20Z,42.805,6.029,13.2973,4.59973,2470.087,2020-8-16T02:59:09Z
2020-08-16T01:01:23Z,42.805,6.029,13.2971,4.59973,2470.053,2020-8-16T03:02:13Z
2020-08-16T01:04:27Z,42.805,6.029,13.2971,4.59973,2470.11,2020-8-16T03:05:16Z
2020-08-16T01:07:30Z,42.805,6.029,13.2970,4.59973,2470.053,2020-8-16T03:08:19Z
2020-08-16T01:10:33Z,42.805,6.029,13.2973,4.59973,2470.077,2020-8-16T03:11:22Z
2020-08-16T01:13:36Z,42.805,6.029,13.2971,4.59973,2470.1,2020-8-16T03:14:26Z
2020-08-16T01:16:39Z,42.805,6.029,13.2970,4.59972,2470.1,2020-8-16T03:17:29Z
2020-08-16T01:19:43Z,42.805,6.029,13.2974,4.59973,2470.063,2020-8-16T03:20:32Z
2020-08-16T01:22:46Z,42.805,6.029,13.2971,4.59973,2470.11,2020-8-16T03:23:35Z
2020-08-16T01:25:49Z,42.805,6.029,13.2975,4.59974,2470.087,2020-8-16T03:26:39Z
2020-08-16T01:28:53Z,42.805,6.029,13.2972,4.59973,2470.096,2020-8-16T03:29:42Z
2020-08-16T01:31:56Z,42.805,6.029,13.2971,4.59973,2470.063,2020-8-16T03:32:45Z
2020-08-16T01:34:59Z,42.805,6.029,13.2974,4.59973,2470.087,2020-8-16T03:35:48Z
2020-08-16T01:38:02Z,42.805,6.029,13.2974,4.59973,2470.1,2020-8-16T03:38:52Z
2020-08-16T01:41:05Z,42.805,6.029,13.2976,4.59974,2470.1,2020-8-16T03:41:55Z
2020-08-16T01:44:09Z,42.805,6.029,13.2976,4.59974,2470.1,2020-8-16T03:44:58Z
2020-08-16T01:47:12Z,42.805,6.029,13.2976,4.59973,2470.077,2020-8-16T03:48:01Z
2020-08-16T01:50:15Z,42.805,6.029,13.2969,4.59973,2470.063,2020-8-16T03:51:04Z
2020-08-16T01:53:18Z,42.805,6.029,13.2970,4.59974,2470.087,2020-8-16T03:54:08Z
2020-08-16T01:56:22Z,42.805,6.029,13.2968,4.59973,2470.1,2020-8-16T03:57:11Z
2020-08-16T01:59:25Z,42.805,6.029,13.2971,4.59974,2470.063,2020-8-16T04:00:14Z
2020-08-16T02:02:28Z,42.805,6.029,13.2968,4.59973,2470.1,2020-8-16T04:03:17Z
2020-08-16T02:05:31Z,42.805,6.029,13.2975,4.59973,2470.124,2020-8-16T04:06:20Z
2020-08-16T02:08:34Z,42.805,6.029,13.2970,4.59973,2470.147,2020-8-16T04:09:24Z
2020-08-16T02:11:38Z,42.805,6.029,13.2969,4.59973,2470.11,2020-8-16T04:12:27Z
2020-08-16T02:14:41Z,42.805,6.029,13.2968,4.59975,2470.11,2020-8-16T04:15:30Z
2020-08-16T02:17:44Z,42.805,6.029,13.2971,4.59973,2470.063,2020-8-16T04:18:33Z
2020-08-16T02:20:47Z,42.805,6.029,13.2973,4.59973,2470.11,2020-8-16T04:21:37Z
2020-08-16T02:23:51Z,42.805,6.029,13.2973,4.59973,2470.147,2020-8-16T04:24:40Z
2020-08-16T02:26:54Z,42.805,6.029,13.2974,4.59973,2470.11,2020-8-16T04:27:43Z
2020-08-16T02:29:57Z,42.805,6.029,13.2971,4.59973,2470.1,2020-8-16T04:30:46Z
2020-08-16T02:33:00Z,42.805,6.029,13.2974,4.59973,2470.1,2020-8-16T04:33:50Z
2020-08-16T02:36:04Z,42.805,6.029,13.2971,4.59973,2470.133,2020-8-16T04:36:53Z
2020-08-16T02:39:07Z,42.805,6.029,13.2971,4.59974,2470.147,2020-8-16T04:39:56Z
2020-08-16T02:42:10Z,42.805,6.029,13.2969,4.59974,2470.133,2020-8-16T04:43:00Z
2020-08-16T02:45:13Z,42.805,6.029,13.2974,4.59974,2470.063,2020-8-16T04:46:03Z
2020-08-16T02:48:17Z,42.805,6.029,13.2972,4.59974,2470.087,2020-8-16T04:49:06Z
2020-08-16T02:51:20Z,42.805,6.029,13.2974,4.59974,2470.133,2020-8-16T04:52:09Z
2020-08-16T02:54:23Z,42.805,6.029,13.2969,4.59973,2470.133,2020-8-16T04:55:12Z
2020-08-16T02:57:26Z,42.805,6.029,13.2970,4.59975,2470.124,2020-8-16T04:58:16Z
2020-08-16T03:00:30Z,42.805,6.029,13.2971,4.59973,2470.147,2020-8-16T05:01:19Z
2020-08-16T03:03:33Z,42.805,6.029,13.2976,4.59973,2470.11,2020-8-16T05:04:22Z
2020-08-16T03:06:36Z,42.805,6.029,13.2973,4.59974,2470.133,2020-8-16T05:07:25Z
2020-08-16T03:09:39Z,42.805,6.029,13.2968,4.59973,2470.133,2020-8-16T05:10:29Z
2020-08-16T03:12:43Z,42.805,6.029,13.2971,4.59973,2470.156,2020-8-16T05:13:32Z
2020-08-16T03:15:46Z,42.805,6.029,13.2970,4.59975,2470.11,2020-8-16T05:16:35Z
2020-08-16T03:18:49Z,42.805,6.029,13.2971,4.59974,2470.11,2020-8-16T05:19:39Z
2020-08-16T03:21:53Z,42.805,6.029,13.2972,4.59975,2470.124,2020-8-16T05:22:42Z
2020-08-16T03:24:56Z,42.805,6.029,13.2972,4.59973,2470.156,2020-8-16T05:25:45Z
2020-08-16T03:27:59Z,42.805,6.029,13.2974,4.59973,2470.133,2020-8-16T05:28:49Z
2020-08-16T03:31:02Z,42.805,6.029,13.2970,4.59976,2470.133,2020-8-16T05:31:52Z
2020-08-16T03:34:06Z,42.805,6.029,13.2973,4.59976,2470.133,2020-8-16T05:34:55Z
2020-08-16T03:37:09Z,42.805,6.029,13.2973,4.59974,2470.147,2020-8-16T05:37:58Z
2020-08-16T03:40:12Z,42.805,6.029,13.2974,4.59975,2470.171,2020-8-16T05:41:01Z
2020-08-16T03:43:15Z,42.805,6.029,13.2971,4.59974,2470.11,2020-8-16T05:44:05Z
2020-08-16T03:46:19Z,42.805,6.029,13.2974,4.59973,2470.147,2020-8-16T05:47:08Z
2020-08-16T03:49:22Z,42.805,6.029,13.2970,4.59973,2470.133,2020-8-16T05:50:11Z
2020-08-16T03:52:25Z,42.805,6.029,13.2974,4.59975,2470.11,2020-8-16T05:53:15Z
2020-08-16T03:55:29Z,42.805,6.029,13.2971,4.59974,2470.133,2020-8-16T05:56:18Z
2020-08-16T03:58:32Z,42.805,6.029,13.2971,4.59975,2470.156,2020-8-16T05:59:21Z
2020-08-16T04:01:35Z,42.805,6.029,13.2974,4.59975,2470.133,2020-8-16T06:02:24Z
2020-08-16T04:04:38Z,42.805,6.029,13.2971,4.59974,2470.133,2020-8-16T06:05:28Z
2020-08-16T04:07:42Z,42.805,6.029,13.2968,4.59973,2470.133,2020-8-16T06:08:31Z
2020-08-16T04:10:45Z,42.805,6.029,13.2974,4.59974,2470.133,2020-8-16T06:11:34Z
2020-08-16T04:13:48Z,42.805,6.029,13.2973,4.59973,2470.147,2020-8-16T06:14:37Z
2020-08-16T04:16:51Z,42.805,6.029,13.2968,4.59973,2470.133,2020-8-16T06:17:41Z
2020-08-16T04:19:55Z,42.805,6.029,13.2975,4.59974,2470.133,2020-8-16T06:20:44Z
2020-08-16T04:22:58Z,42.805,6.029,13.2973,4.59973,2470.156,2020-8-16T06:23:47Z
2020-08-16T04:26:01Z,42.805,6.029,13.2971,4.59974,2470.143,2020-8-16T06:26:50Z
2020-08-16T04:29:04Z,42.805,6.029,13.2971,4.59973,2470.133,2020-8-16T06:29:54Z
2020-08-16T04:32:08Z,42.805,6.029,13.2973,4.59973,2470.171,2020-8-16T06:32:57Z
2020-08-16T04:35:11Z,42.805,6.029,13.2972,4.59973,2470.171,2020-8-16T06:36:00Z
2020-08-16T04:38:14Z,42.805,6.029,13.2973,4.59973,2470.194,2020-8-16T06:39:04Z
2020-08-16T04:41:17Z,42.805,6.029,13.2970,4.59974,2470.156,2020-8-16T06:42:07Z
2020-08-16T04:44:21Z,42.805,6.029,13.2970,4.59973,2470.156,2020-8-16T06:45:10Z
2020-08-16T04:47:24Z,42.805,6.029,13.2971,4.59973,2470.171,2020-8-16T06:48:14Z
2020-08-16T04:50:28Z,42.805,6.029,13.2969,4.59973,2470.133,2020-8-16T06:51:17Z
2020-08-16T04:53:31Z,42.805,6.029,13.2971,4.59973,2470.156,2020-8-16T06:54:20Z
2020-08-16T04:56:34Z,42.805,6.029,13.2971,4.59973,2470.133,2020-8-16T06:57:23Z
2020-08-16T04:59:37Z,42.805,6.029,13.2968,4.59974,2470.156,2020-8-16T07:00:26Z
2020-08-16T05:02:41Z,42.805,6.029,13.2973,4.59973,2470.18,2020-8-16T07:03:30Z
2020-08-16T05:05:44Z,42.805,6.029,13.2971,4.59973,2470.147,2020-8-16T07:06:33Z
2020-08-16T05:08:47Z,42.805,6.029,13.2971,4.59973,2470.11,2020-8-16T07:09:36Z
2020-08-16T05:11:50Z,42.805,6.029,13.2970,4.59973,2470.156,2020-8-16T07:12:40Z
2020-08-16T05:14:54Z,42.805,6.029,13.2971,4.59974,2470.147,2020-8-16T07:15:43Z
2020-08-16T05:17:57Z,42.805,6.029,13.2970,4.59973,2470.156,2020-8-16T07:18:46Z
2020-08-16T05:21:00Z,42.805,6.029,13.2974,4.59973,2470.156,2020-8-16T07:21:49Z
2020-08-16T05:24:03Z,42.805,6.029,13.2969,4.59974,2470.171,2020-8-16T07:24:53Z
2020-08-16T05:27:07Z,42.805,6.029,13.2968,4.59973,2470.133,2020-8-16T07:27:56Z
2020-08-16T05:30:10Z,42.805,6.029,13.2973,4.59976,2470.087,2020-8-16T07:30:59Z
2020-08-16T05:33:13Z,42.805,6.029,13.2971,4.59975,2470.156,2020-8-16T07:34:02Z
2020-08-16T05:36:16Z,42.805,6.029,13.2971,4.59974,2470.156,2020-8-16T07:37:06Z
2020-08-16T05:39:20Z,42.805,6.029,13.2971,4.59973,2470.156,2020-8-16T07:40:09Z
2020-08-16T05:42:23Z,42.805,6.029,13.2971,4.59973,2470.11,2020-8-16T07:43:12Z
2020-08-16T05:45:26Z,42.805,6.029,13.2974,4.59974,2470.156,2020-8-16T07:46:15Z
2020-08-16T05:48:29Z,42.805,6.029,13.2972,4.59974,2470.147,2020-8-16T07:49:19Z
2020-08-16T05:51:33Z,42.805,6.029,13.2973,4.59974,2470.18,2020-8-16T07:52:22Z
2020-08-16T05:54:36Z,42.805,6.029,13.2974,4.59973,2470.156,2020-8-16T07:55:25Z
2020-08-16T05:57:39Z,42.805,6.029,13.2973,4.59974,2470.11,2020-8-16T07:58:29Z
2020-08-16T06:00:43Z,42.805,6.029,13.2974,4.59976,2470.133,2020-8-16T08:01:32Z
2020-08-16T06:03:46Z,42.805,6.029,13.2967,4.59975,2470.11,2020-8-16T08:04:35Z
2020-08-16T06:06:49Z,42.805,6.029,13.2970,4.59974,2470.156,2020-8-16T08:07:39Z
2020-08-16T06:09:53Z,42.805,6.029,13.2970,4.59973,2470.11,2020-8-16T08:10:42Z
2020-08-16T06:12:56Z,42.805,6.029,13.2970,4.59973,2470.133,2020-8-16T08:13:45Z
2020-08-16T06:15:59Z,42.805,6.029,13.2973,4.59976,2470.124,2020-8-16T08:16:48Z
2020-08-16T06:19:02Z,42.805,6.029,13.2974,4.59976,2470.156,2020-8-16T08:19:52Z
2020-08-16T06:22:06Z,42.805,6.029,13.2972,4.59975,2470.124,2020-8-16T08:22:55Z
2020-08-16T06:25:09Z,42.805,6.029,13.2968,4.59973,2470.156,2020-8-16T08:25:58Z
2020-08-16T06:28:12Z,42.805,6.029,13.2974,4.59975,2470.133,2020-8-16T08:29:01Z
2020-08-16T06:31:15Z,42.805,6.029,13.2974,4.59973,2470.18,2020-8-16T08:32:05Z
2020-08-16T06:34:18Z,42.805,6.029,13.2971,4.59974,2470.133,2020-8-16T08:35:08Z
2020-08-16T06:37:22Z,42.805,6.029,13.2973,4.59974,2470.133,2020-8-16T08:38:11Z
2020-08-16T06:40:25Z,42.805,6.029,13.2971,4.59974,2470.11,2020-8-16T08:41:14Z
2020-08-16T06:43:28Z,42.805,6.029,13.2971,4.59975,2470.124,2020-8-16T08:44:18Z
2020-08-16T06:46:32Z,42.805,6.029,13.2971,4.59974,2470.147,2020-8-16T08:47:21Z
2020-08-16T06:49:35Z,42.805,6.029,13.2971,4.59976,2470.11,2020-8-16T08:50:24Z
2020-08-16T06:52:38Z,42.805,6.029,13.2971,4.59975,2470.133,2020-8-16T08:53:27Z
2020-08-16T06:55:41Z,42.805,6.029,13.2973,4.59975,2470.11,2020-8-16T08:56:30Z
2020-08-16T06:58:44Z,42.805,6.029,13.2971,4.59975,2470.11,2020-8-16T08:59:34Z
2020-08-16T07:01:48Z,42.805,6.029,13.2970,4.59974,2470.133,2020-8-16T09:02:37Z
2020-08-16T07:04:51Z,42.805,6.029,13.2971,4.59973,2470.124,2020-8-16T09:05:40Z
2020-08-16T07:07:54Z,42.805,6.029,13.2971,4.59976,2470.133,2020-8-16T09:08:44Z
2020-08-16T07:10:58Z,42.805,6.029,13.2969,4.59974,2470.11,2020-8-16T09:11:47Z
2020-08-16T07:14:01Z,42.805,6.029,13.2974,4.59974,2470.087,2020-8-16T09:14:50Z
2020-08-16T07:17:04Z,42.805,6.029,13.2975,4.59974,2470.124,2020-8-16T09:17:54Z
2020-08-16T07:20:08Z,42.805,6.029,13.2971,4.59975,2470.124,2020-8-16T09:20:57Z
2020-08-16T07:23:11Z,42.805,6.029,13.2973,4.59973,2470.11,2020-8-16T09:24:00Z
2020-08-16T07:26:14Z,42.805,6.029,13.2972,4.59974,2470.11,2020-8-16T09:27:03Z
2020-08-16T07:29:17Z,42.805,6.029,13.2972,4.59973,2470.1,2020-8-16T09:30:07Z
2020-08-16T07:32:21Z,42.805,6.029,13.2971,4.59975,2470.133,2020-8-16T09:33:10Z
2020-08-16T07:35:24Z,42.805,6.029,13.2972,4.59976,2470.133,2020-8-16T09:36:13Z
2020-08-16T07:38:27Z,42.805,6.029,13.2975,4.59975,2470.11,2020-8-16T09:39:16Z
2020-08-16T07:41:30Z,42.805,6.029,13.2968,4.59975,2470.1,2020-8-16T09:42:20Z
2020-08-16T07:44:34Z,42.805,6.029,13.2973,4.59973,2470.087,2020-8-16T09:45:23Z
2020-08-16T07:47:37Z,42.805,6.029,13.2971,4.59974,2470.133,2020-8-16T09:48:26Z
2020-08-16T07:50:40Z,42.805,6.029,13.2973,4.59974,2470.124,2020-8-16T09:51:29Z
2020-08-16T07:53:43Z,42.805,6.029,13.2970,4.59974,2470.1,2020-8-16T09:54:33Z
2020-08-16T07:56:47Z,42.805,6.029,13.2971,4.59976,2470.1,2020-8-16T09:57:36Z
2020-08-16T07:59:50Z,42.805,6.029,13.2972,4.59975,2470.077,2020-8-16T10:00:39Z
2020-08-16T08:02:53Z,42.805,6.029,13.2974,4.59974,2470.087,2020-8-16T10:03:43Z
2020-08-16T08:05:57Z,42.805,6.029,13.2972,4.59975,2470.087,2020-8-16T10:06:46Z
2020-08-16T08:09:00Z,42.805,6.029,13.2974,4.59973,2470.1,2020-8-16T10:09:49Z
2020-08-16T08:12:03Z,42.805,6.029,13.2970,4.59975,2470.124,2020-8-16T10:12:52Z
2020-08-16T08:15:06Z,42.805,6.029,13.2971,4.59974,2470.1,2020-8-16T10:15:55Z
2020-08-16T08:18:09Z,42.805,6.029,13.2973,4.59975,2470.124,2020-8-16T10:18:59Z
2020-08-16T08:21:13Z,42.805,6.029,13.2974,4.59976,2470.133,2020-8-16T10:22:02Z
2020-08-16T08:24:16Z,42.805,6.029,13.2974,4.59975,2470.04,2020-8-16T10:25:05Z
2020-08-16T08:27:19Z,42.805,6.029,13.2969,4.59973,2470.11,2020-8-16T10:28:09Z
2020-08-16T08:30:22Z,42.805,6.029,13.2970,4.59974,2470.063,2020-8-16T10:31:12Z
2020-08-16T08:33:26Z,42.805,6.029,13.2972,4.59973,2470.04,2020-8-16T10:34:15Z
2020-08-16T08:36:29Z,42.805,6.029,13.2975,4.59974,2470.1,2020-8-16T10:37:18Z
2020-08-16T08:39:32Z,42.805,6.029,13.2970,4.59974,2470.087,2020-8-16T10:40:21Z
2020-08-16T08:42:35Z,42.805,6.029,13.2976,4.59973,2470.087,2020-8-16T10:43:25Z
2020-08-16T08:45:39Z,42.805,6.029,13.2971,4.59976,2470.063,2020-8-16T10:46:28Z
2020-08-16T08:48:42Z,42.805,6.029,13.2971,4.59975,2470.063,2020-8-16T10:49:31Z
2020-08-16T08:51:45Z,42.805,6.029,13.2969,4.59976,2470.063,2020-8-16T10:52:35Z
2020-08-16T08:54:49Z,42.805,6.029,13.2972,4.59975,2470.063,2020-8-16T10:55:38Z
2020-08-16T08:57:52Z,42.805,6.029,13.2976,4.59976,2470.04,2020-8-16T10:58:41Z
2020-08-16T09:00:55Z,42.805,6.029,13.2974,4.59973,2470.087,2020-8-16T11:01:44Z
2020-08-16T09:03:58Z,42.805,6.029,13.2971,4.59974,2470.087,2020-8-16T11:04:48Z
2020-08-16T09:07:02Z,42.805,6.029,13.2973,4.59975,2470.087,2020-8-16T11:07:51Z
2020-08-16T09:10:05Z,42.805,6.029,13.2972,4.59974,2470.087,2020-8-16T11:10:54Z
2020-08-16T09:13:08Z,42.805,6.029,13.2971,4.59974,2470.1,2020-8-16T11:13:58Z
2020-08-16T09:16:12Z,42.805,6.029,13.2971,4.59974,2470.087,2020-8-16T11:17:01Z
2020-08-16T09:19:15Z,42.805,6.029,13.2971,4.59975,2470.077,2020-8-16T11:20:04Z
2020-08-16T09:22:18Z,42.805,6.029,13.2972,4.59975,2470.077,2020-8-16T11:23:07Z
2020-08-16T09:25:21Z,42.805,6.029,13.2974,4.59974,2470.077,2020-8-16T11:26:10Z
2020-08-16T09:28:25Z,42.805,6.029,13.2971,4.59973,2470.087,2020-8-16T11:29:14Z
2020-08-16T09:31:28Z,42.805,6.029,13.2971,4.59975,2470.04,2020-8-16T11:32:17Z
2020-08-16T09:34:31Z,42.805,6.029,13.2971,4.59975,2470.063,2020-8-16T11:35:20Z
2020-08-16T09:37:34Z,42.805,6.029,13.2971,4.59975,2470.077,2020-8-16T11:38:23Z
2020-08-16T09:40:37Z,42.805,6.029,13.2971,4.59974,2470.053,2020-8-16T11:41:27Z
2020-08-16T09:43:41Z,42.805,6.029,13.2975,4.59973,2470.063,2020-8-16T11:44:30Z
2020-08-16T09:46:44Z,42.805,6.029,13.2968,4.59973,2470.063,2020-8-16T11:47:33Z
2020-08-16T09:49:47Z,42.805,6.029,13.2973,4.59973,2470.063,2020-8-16T11:50:36Z
2020-08-16T09:52:50Z,42.805,6.029,13.2967,4.59974,2470.04,2020-8-16T11:53:40Z
2020-08-16T09:55:54Z,42.805,6.029,13.2970,4.59974,2470.077,2020-8-16T11:56:43Z
2020-08-16T09:58:57Z,42.805,6.029,13.2974,4.59973,2470.053,2020-8-16T11:59:46Z
2020-08-16T10:02:00Z,42.805,6.029,13.2973,4.59976,2470.04,2020-8-16T12:02:49Z
2020-08-16T10:05:03Z,42.805,6.029,13.2971,4.59974,2470.04,2020-8-16T12:05:53Z
2020-08-16T10:08:07Z,42.805,6.029,13.2974,4.59973,2470.04,2020-8-16T12:08:56Z
2020-08-16T10:11:10Z,42.805,6.029,13.2968,4.59973,2470.053,2020-8-16T12:11:59Z
2020-08-16T10:14:13Z,42.805,6.029,13.2975,4.59973,2470.053,2020-8-16T12:15:02Z
2020-08-16T10:17:16Z,42.805,6.029,13.2972,4.59974,2470.017,2020-8-16T12:18:06Z
2020-08-16T10:20:20Z,42.805,6.029,13.2968,4.59973,2470.017,2020-8-16T12:21:09Z
2020-08-16T10:23:23Z,42.805,6.029,13.2970,4.59974,2470.03,2020-8-16T12:24:12Z
2020-08-16T10:26:26Z,42.805,6.029,13.2974,4.59973,2470.04,2020-8-16T12:27:15Z
2020-08-16T10:29:29Z,42.805,6.029,13.2971,4.59974,2470.053,2020-8-16T12:30:19Z
2020-08-16T10:32:33Z,42.805,6.029,13.2969,4.59973,2470.04,2020-8-16T12:33:22Z
2020-08-16T10:35:36Z,42.805,6.029,13.2972,4.59973,2470.077,2020-8-16T12:36:25Z
2020-08-16T10:38:39Z,42.805,6.029,13.2973,4.59974,2470.017,2020-8-16T12:39:28Z
2020-08-16T10:41:43Z,42.805,6.029,13.2973,4.59974,2470.04,2020-8-16T12:42:32Z
2020-08-16T10:44:46Z,42.805,6.029,13.2973,4.59975,2470.03,2020-8-16T12:45:36Z
2020-08-16T10:47:50Z,42.805,6.029,13.2970,4.59974,2470.03,2020-8-16T12:48:39Z
2020-08-16T10:50:53Z,42.805,6.029,13.2972,4.59973,2470.03,2020-8-16T12:51:42Z
2020-08-16T10:53:56Z,42.805,6.029,13.2973,4.59974,2469.979,2020-8-16T12:54:45Z
2020-08-16T10:56:59Z,42.805,6.029,13.2974,4.59974,2470.04,2020-8-16T12:57:49Z
2020-08-16T11:00:02Z,42.805,6.029,13.2974,4.59974,2469.993,2020-8-16T13:00:52Z
2020-08-16T11:03:06Z,42.805,6.029,13.2971,4.59973,2470.04,2020-8-16T13:03:55Z
2020-08-16T11:06:09Z,42.805,6.029,13.2975,4.59974,2470.03,2020-8-16T13:06:58Z
2020-08-16T11:09:12Z,42.805,6.029,13.2969,4.59974,2470.077,2020-8-16T13:10:02Z
2020-08-16T11:12:16Z,42.805,6.029,13.2972,4.59973,2470.04,2020-8-16T13:13:05Z
2020-08-16T11:15:19Z,42.805,6.029,13.2972,4.59973,2470.04,2020-8-16T13:16:08Z
2020-08-16T11:18:22Z,42.805,6.029,13.2972,4.59973,2470.03,2020-8-16T13:19:11Z
2020-08-16T11:21:25Z,42.805,6.029,13.2974,4.59973,2470.017,2020-8-16T13:22:15Z
2020-08-16T11:24:29Z,42.805,6.029,13.2973,4.59973,2469.993,2020-8-16T13:25:18Z
2020-08-16T11:27:32Z,42.805,6.029,13.2968,4.59974,2470.03,2020-8-16T13:28:21Z
2020-08-16T11:30:35Z,42.805,6.029,13.2971,4.59973,2470.03,2020-8-16T13:31:24Z
2020-08-16T11:33:38Z,42.805,6.029,13.2969,4.59975,2470.04,2020-8-16T13:34:28Z
2020-08-16T11:36:42Z,42.805,6.029,13.2971,4.59974,2470.03,2020-8-16T13:37:31Z
2020-08-16T11:39:45Z,42.805,6.029,13.2972,4.59975,2470.053,2020-8-16T13:40:34Z
2020-08-16T11:42:48Z,42.805,6.029,13.2972,4.59973,2470.03,2020-8-16T13:43:37Z
2020-08-16T11:45:51Z,42.805,6.029,13.2974,4.59973,2470.03,2020-8-16T13:46:41Z
2020-08-16T11:48:55Z,42.805,6.029,13.2976,4.59973,2470.03,2020-8-16T13:49:44Z
2020-08-16T11:51:58Z,42.805,6.029,13.2971,4.59974,2470.053,2020-8-16T13:52:47Z
2020-08-16T11:55:01Z,42.805,6.029,13.2971,4.59973,2470.03,2020-8-16T13:55:50Z
2020-08-16T11:58:04Z,42.805,6.029,13.2970,4.59975,2470.053,2020-8-16T13:58:54Z
2020-08-16T12:01:08Z,42.805,6.029,13.2976,4.59974,2470.017,2020-8-16T14:01:57Z
2020-08-16T12:04:11Z,42.805,6.029,13.2973,4.59975,2470.053,2020-8-16T14:05:00Z
2020-08-16T12:07:14Z,42.805,6.029,13.2974,4.59973,2470.03,2020-8-16T14:08:04Z
2020-08-16T12:10:18Z,42.805,6.029,13.2971,4.59973,2470.03,2020-8-16T14:11:07Z
2020-08-16T12:13:21Z,42.805,6.029,13.2973,4.59973,2470.017,2020-8-16T14:14:10Z
2020-08-16T12:16:24Z,42.805,6.029,13.2971,4.59974,2470.03,2020-8-16T14:17:13Z
2020-08-16T12:19:27Z,42.805,6.029,13.2970,4.59973,2470.017,2020-8-16T14:20:17Z
2020-08-16T12:22:31Z,42.805,6.029,13.2975,4.59975,2470.04,2020-8-16T14:23:20Z
2020-08-16T12:25:34Z,42.805,6.029,13.2974,4.59975,2470.053,2020-8-16T14:26:23Z
2020-08-16T12:28:37Z,42.805,6.029,13.2974,4.59973,2470.04,2020-8-16T14:29:26Z
2020-08-16T12:31:40Z,42.805,6.029,13.2972,4.59973,2469.993,2020-8-16T14:32:30Z
2020-08-16T12:34:44Z,42.805,6.029,13.2971,4.59973,2470.04,2020-8-16T14:35:33Z
2020-08-16T12:37:47Z,42.805,6.029,13.2969,4.59973,2470.03,2020-8-16T14:38:36Z
2020-08-16T12:40:50Z,42.805,6.029,13.2968,4.59974,2470.053,2020-8-16T14:41:39Z
2020-08-16T12:43:53Z,42.805,6.029,13.2975,4.59975,2470.04,2020-8-16T14:44:43Z
2020-08-16T12:46:57Z,42.805,6.029,13.2974,4.59973,2469.993,2020-8-16T14:47:46Z
2020-08-16T12:50:00Z,42.805,6.029,13.2974,4.59973,2470.04,2020-8-16T14:50:49Z
2020-08-16T12:53:03Z,42.805,6.029,13.2969,4.59973,2470.04,2020-8-16T14:53:53Z
2020-08-16T12:56:07Z,42.805,6.029,13.2975,4.59975,2470.063,2020-8-16T14:56:56Z
2020-08-16T12:59:10Z,42.805,6.029,13.2971,4.59974,2470.017,2020-8-16T14:59:59Z
2020-08-16T13:02:13Z,42.805,6.029,13.2971,4.59973,2470.053,2020-8-16T15:03:02Z
2020-08-16T13:05:16Z,42.805,6.029,13.2971,4.59973,2470.063,2020-8-16T15:06:06Z
2020-08-16T13:08:20Z,42.805,6.029,13.2971,4.59973,2470.03,2020-8-16T15:09:09Z
2020-08-16T13:11:23Z,42.805,6.029,13.2971,4.59973,2470.04,2020-8-16T15:12:12Z
2020-08-16T13:14:26Z,42.805,6.029,13.2969,4.59974,2470.063,2020-8-16T15:15:15Z
2020-08-16T13:17:29Z,42.805,6.029,13.2971,4.59974,2470.063,2020-8-16T15:18:19Z
2020-08-16T13:20:33Z,42.805,6.029,13.2971,4.59973,2470.077,2020-8-16T15:21:22Z
2020-08-16T13:23:36Z,42.805,6.029,13.2974,4.59973,2470.053,2020-8-16T15:24:25Z
2020-08-16T13:26:39Z,42.805,6.029,13.2973,4.59974,2470.087,2020-8-16T15:27:29Z
2020-08-16T13:29:43Z,42.805,6.029,13.2974,4.59974,2470.1,2020-8-16T15:30:32Z
2020-08-16T13:32:46Z,42.805,6.029,13.2969,4.59973,2470.063,2020-8-16T15:33:35Z
2020-08-16T13:35:49Z,42.805,6.029,13.2973,4.59973,2470.077,2020-8-16T15:36:38Z
2020-08-16T13:38:52Z,42.805,6.029,13.2972,4.59973,2470.053,2020-8-16T15:39:42Z
2020-08-16T13:41:55Z,42.805,6.029,13.2971,4.59973,2470.063,2020-8-16T15:42:45Z
2020-08-16T13:44:59Z,42.805,6.029,13.2969,4.59975,2470.063,2020-8-16T15:45:48Z
2020-08-16T13:48:02Z,42.805,6.029,13.2976,4.59973,2470.1,2020-8-16T15:48:51Z
2020-08-16T13:51:05Z,42.805,6.029,13.2970,4.59974,2470.077,2020-8-16T15:51:55Z
2020-08-16T13:54:09Z,42.805,6.029,13.2971,4.59975,2470.077,2020-8-16T15:54:58Z
2020-08-16T13:57:12Z,42.805,6.029,13.2972,4.59973,2470.077,2020-8-16T15:58:01Z
2020-08-16T14:00:15Z,42.805,6.029,13.2974,4.59973,2470.063,2020-8-16T16:01:04Z
2020-08-16T14:03:18Z,42.805,6.029,13.2974,4.59974,2470.1,2020-8-16T16:04:08Z
2020-08-16T14:06:22Z,42.805,6.029,13.2970,4.59973,2470.073,2020-8-16T16:07:11Z
2020-08-16T14:09:25Z,42.805,6.029,13.2972,4.59973,2470.063,2020-8-16T16:10:14Z
2020-08-16T14:12:28Z,42.805,6.029,13.2971,4.59973,2470.124,2020-8-16T16:13:17Z
2020-08-16T14:15:31Z,42.805,6.029,13.2970,4.59973,2470.087,2020-8-16T16:16:21Z
2020-08-16T14:18:34Z,42.805,6.029,13.2972,4.59974,2470.1,2020-8-16T16:19:24Z
2020-08-16T14:21:38Z,42.805,6.029,13.2977,4.59976,2470.124,2020-8-16T16:22:27Z
2020-08-16T14:24:41Z,42.805,6.029,13.2971,4.59974,2470.087,2020-8-16T16:25:30Z
2020-08-16T14:27:45Z,42.805,6.029,13.2970,4.59973,2470.087,2020-8-16T16:28:34Z
2020-08-16T14:30:48Z,42.805,6.029,13.2975,4.59973,2470.1,2020-8-16T16:31:37Z
2020-08-16T14:33:51Z,42.805,6.029,13.2970,4.59973,2470.087,2020-8-16T16:34:40Z
2020-08-16T14:36:54Z,42.805,6.029,13.2974,4.59973,2470.087,2020-8-16T16:37:44Z
2020-08-16T14:39:58Z,42.805,6.029,13.2971,4.59973,2470.11,2020-8-16T16:40:47Z
2020-08-16T14:43:01Z,42.805,6.029,13.2971,4.59973,2470.156,2020-8-16T16:43:50Z
2020-08-16T14:46:04Z,42.805,6.029,13.2971,4.59973,2470.11,2020-8-16T16:46:53Z
2020-08-16T14:49:07Z,42.805,6.029,13.2972,4.59973,2470.087,2020-8-16T16:49:57Z
2020-08-16T14:52:10Z,42.805,6.029,13.2974,4.59974,2470.147,2020-8-16T16:53:00Z
2020-08-16T14:55:14Z,42.805,6.029,13.2968,4.59974,2470.147,2020-8-16T16:56:03Z
2020-08-16T14:58:17Z,42.805,6.029,13.2973,4.59976,2470.11,2020-8-16T16:59:06Z
2020-08-16T15:01:20Z,42.805,6.029,13.2971,4.59973,2470.087,2020-8-16T17:02:10Z
2020-08-16T15:04:24Z,42.805,6.029,13.2971,4.59974,2470.171,2020-8-16T17:05:13Z
2020-08-16T15:07:27Z,42.805,6.029,13.2971,4.59973,2470.156,2020-8-16T17:08:16Z
2020-08-16T15:10:30Z,42.805,6.029,13.2974,4.59973,2470.133,2020-8-16T17:11:19Z
2020-08-16T15:13:33Z,42.805,6.029,13.2971,4.59974,2470.147,2020-8-16T17:14:23Z